Location: Il Ritiro
(43.4167°N, 13.1333°E)
Time: 17:11:39
(UTC+00:00)

TSX-5 - Pass Details

Date: 05 July 2020
Orbit: 404 x 1328 km, 68.9° (Epoch: 10 August)

Event Time Altitude Azimuth Distance (km) Brightness Sun altitude
Rises 21:32:08 0° 334° (NNW) 2,445 8.8 -20.0°
Reaches altitude 10° 21:34:03 10° 337° (NNW) 1,637 7.5 -20.2°
Maximum altitude 21:37:37 70° 61° (ENE) 573 3.8 -20.4°
Enters shadow 21:38:15 57° 117° (ESE) 648 3.8 -20.5°
